Location: Acton
(51.4942°N, 0.2232°W)
Time: 12:39:57
(UTC+00:00)

Cosmos 2082 Rocket - Pass Details

Date: 18 September 2020
Orbit: 834 x 853 km, 71.0° (Epoch: 23 October)

Event Time Altitude Azimuth Distance (km) Brightness Sun altitude
Rises 18:52:59 0° 326° (NW) 3,394 6.1 -7.8°
Reaches altitude 10° 18:56:52 10° 352° (N) 2,457 4.9 -8.4°
Maximum altitude 18:59:35 14° 21° (NNE) 2,215 4.3 -8.8°
Drops below altitude 10° 19:02:18 10° 50° (NE) 2,455 4.3 -9.3°
Enters shadow 19:04:23 - 67° (ENE) 2,903 4.5 -9.6°
